Date String (YYYY-MM-DD hh:mm:ss) UTC,Instrument flags,absolute air pressure of the measurement (hPa),sample flow rate (lpm),inlet stack bypass flow (lpm),air temperature of the measurement (°C),ambient temperature measured by the external sensor (°C),aerosol sample conditioner tube jacket temperature (°C),OPC LED temperature (°C),internal box temperature (°C),relative humidity of the measurement (%),span deviation,mass concentration of particles derived from Lorenz-Mie calculation of OPC scattering (μg/m³),mass concentration of particles derived from Lorenz-Mie calculation of OPC scattering (μg/m³),mass concentration of particles derived from Lorenz-Mie calculation of OPC scattering (μg/m³)
DateTimeUTC,F1_M11,P_M11,Q1_M11,Q2_M11,T1_M11,T2_M11,T3_M11,T4_M11,T5_M11,U1_M11,ZSPAN_M11,X0_M11,X2_M11,X1_M11
2024-05-18 02:00:00,SystemResetWarning,0821.6,5.00,000.00,023.4,022.3,000.0,031.7,025.1,016.2,0000.0,0009.43,0003.09,0001.95
2024-05-18 02:01:00,SystemResetWarning,0821.7,4.99,000.00,023.5,022.6,000.0,031.7,025.3,016.2,0000.0,0009.26,0003.07,0001.96
2024-05-18 02:02:00,SystemResetWarning,0821.6,4.99,000.00,023.6,022.9,000.0,031.7,025.5,016.1,0000.0,0008.82,0003.05,0001.96
2024-05-18 02:03:00,SystemResetWarning,0821.7,5.02,000.00,023.7,023.2,000.0,031.7,025.5,016.0,0000.0,0008.32,0003.07,0001.97
2024-05-18 02:04:00,SystemResetWarning,0821.7,5.00,000.00,023.8,023.4,000.0,031.8,025.7,016.0,0000.0,0007.84,0003.11,0001.99
2024-05-18 02:05:00,SystemResetWarning,0821.7,4.99,000.00,023.9,023.5,000.0,031.8,025.8,016.1,0000.0,0007.87,0003.13,0002.02
2024-05-18 02:06:00,SystemResetWarning,0821.8,5.00,000.00,024.0,023.7,000.0,031.9,026.0,016.2,0000.0,0007.90,0003.11,0002.03
2024-05-18 02:07:00,SystemResetWarning,0821.8,5.00,000.00,024.0,023.0,000.0,031.9,025.5,016.3,0000.0,0007.88,0003.11,0002.03
2024-05-18 02:08:00,SystemResetWarning,0821.8,5.00,000.00,023.7,021.6,000.0,032.0,024.9,016.7,0000.0,0007.82,0003.10,0002.03
2024-05-18 02:09:00,SystemResetWarning,0821.8,5.02,000.00,023.6,021.8,000.0,032.0,024.9,016.9,0000.0,0007.87,0003.10,0002.03
2024-05-18 02:10:00,SystemResetWarning,0821.9,5.00,000.00,023.6,022.1,000.0,031.9,025.1,017.0,0000.0,0008.01,0003.10,0002.05
2024-05-18 02:11:00,SystemResetWarning,0821.9,4.98,000.00,023.7,022.4,000.0,031.9,025.3,017.1,0000.0,0007.73,0003.09,0002.07
2024-05-18 02:12:00,SystemResetWarning,0821.9,5.01,000.00,023.7,022.7,000.0,031.9,025.5,017.1,0000.0,0007.65,0003.11,0002.09
2024-05-18 02:13:00,SystemResetWarning,0821.9,5.02,000.00,023.8,023.0,000.0,031.9,025.6,017.1,0000.0,0007.52,0003.07,0002.12
2024-05-18 02:14:00,SystemResetWarning,0821.9,5.00,000.00,023.9,023.3,000.0,031.9,025.7,017.2,0000.0,0006.95,0003.10,0002.14
2024-05-18 02:15:00,SystemResetWarning,0821.9,5.00,000.00,024.0,023.5,000.0,031.9,025.9,017.3,0000.0,0006.53,0003.14,0002.15
2024-05-18 02:16:00,SystemResetWarning,0821.9,5.00,000.00,024.0,023.6,000.0,032.0,025.9,017.2,0000.0,0006.34,0003.14,0002.14
2024-05-18 02:17:00,SystemResetWarning,0821.9,4.99,000.00,023.9,022.1,000.0,032.1,025.1,017.4,0000.0,0006.26,0003.17,0002.14
2024-05-18 02:18:00,SystemResetWarning,0821.9,5.00,000.00,023.5,020.5,000.0,032.1,024.2,017.8,0000.0,0006.51,0003.17,0002.15
2024-05-18 02:19:00,SystemResetWarning,0821.9,5.02,000.00,023.3,020.8,000.0,032.1,024.3,018.1,0000.0,0007.29,0003.20,0002.17
2024-05-18 02:20:00,SystemResetWarning,0821.9,5.00,000.00,023.3,021.3,000.0,031.9,024.6,018.1,0000.0,0007.51,0003.18,0002.17
2024-05-18 02:21:00,SystemResetWarning,0821.9,5.00,000.00,023.4,021.7,000.0,031.8,024.9,018.3,0000.0,0007.24,0003.16,0002.18
2024-05-18 02:22:00,SystemResetWarning,0822.0,4.99,000.00,023.4,022.1,000.0,031.8,025.1,018.3,0000.0,0007.81,0003.14,0002.18
2024-05-18 02:23:00,SystemResetWarning,0821.9,5.01,000.00,023.5,022.4,000.0,031.8,025.2,018.2,0000.0,0008.11,0003.13,0002.15
2024-05-18 02:24:00,SystemResetWarning,0821.9,5.01,000.00,023.6,022.8,000.0,031.8,025.4,018.1,0000.0,0009.10,0003.18,0002.13
2024-05-18 02:25:00,SystemResetWarning,0821.9,4.99,000.00,023.7,023.0,000.0,031.8,025.5,018.1,0000.0,0009.13,0003.18,0002.11
2024-05-18 02:26:00,SystemResetWarning,0822.0,5.00,000.00,023.8,023.2,000.0,031.8,025.6,017.7,0000.0,0009.28,0003.16,0002.10
2024-05-18 02:27:00,SystemResetWarning,0822.1,5.00,000.00,023.9,023.4,000.0,031.8,025.8,017.7,0000.0,0009.74,0003.17,0002.11
2024-05-18 02:28:00,SystemResetWarning,0822.0,5.01,000.00,023.9,023.6,000.0,031.9,025.9,017.5,0000.0,0009.65,0003.15,0002.12
2024-05-18 02:29:00,SystemResetWarning,0822.1,4.99,000.00,024.0,023.5,000.0,032.0,025.8,017.5,0000.0,0009.61,0003.17,0002.12
2024-05-18 02:30:00,SystemResetWarning,0822.1,4.99,000.00,023.8,021.9,000.0,032.0,024.9,017.8,0000.0,0009.24,0003.15,0002.10
2024-05-18 02:31:00,SystemResetWarning,0822.1,5.02,000.00,023.6,021.6,000.0,032.1,024.8,018.0,0000.0,0009.11,0003.17,0002.10
2024-05-18 02:32:00,SystemResetWarning,0822.1,5.00,000.00,023.6,021.9,000.0,032.0,025.0,018.1,0000.0,0009.10,0003.16,0002.09
2024-05-18 02:33:00,SystemResetWarning,0822.1,4.98,000.00,023.6,022.2,000.0,031.9,025.1,018.1,0000.0,0008.81,0003.18,0002.08
2024-05-18 02:34:00,SystemResetWarning,0822.2,5.02,000.00,023.7,022.5,000.0,031.9,025.3,018.2,0000.0,0008.47,0003.20,0002.10
2024-05-18 02:35:00,SystemResetWarning,0822.2,5.00,000.00,023.7,022.8,000.0,031.9,025.5,018.3,0000.0,0007.87,0003.19,0002.12
2024-05-18 02:36:00,SystemResetWarning,0822.2,4.99,000.00,023.8,023.1,000.0,031.9,025.6,018.5,0000.0,0007.92,0003.16,0002.14
2024-05-18 02:37:00,SystemResetWarning,0822.3,5.00,000.00,023.9,023.3,000.0,031.9,025.7,018.5,0000.0,0007.84,0003.16,0002.14
2024-05-18 02:38:00,SystemResetWarning,0822.3,5.01,000.00,024.0,023.5,000.0,032.0,025.9,018.6,0000.0,0007.55,0003.16,0002.14
2024-05-18 02:39:00,SystemResetWarning,0822.4,5.00,000.00,024.0,023.7,000.0,032.0,026.0,018.6,0000.0,0007.63,0003.17,0002.13
2024-05-18 02:40:00,SystemResetWarning,0822.4,5.00,000.00,024.1,023.7,000.0,032.1,026.0,018.6,0000.0,0007.54,0003.15,0002.12
2024-05-18 02:41:00,SystemResetWarning,0822.3,5.00,000.00,024.0,022.2,000.0,032.1,025.2,018.7,0000.0,0007.57,0003.14,0002.12
2024-05-18 02:42:00,SystemResetWarning,0822.3,5.02,000.00,023.7,021.4,000.0,032.2,024.8,019.0,0000.0,0007.52,0003.13,0002.11
2024-05-18 02:43:00,SystemResetWarning,0822.4,4.99,000.00,023.7,021.8,000.0,032.1,024.9,019.1,0000.0,0007.45,0003.12,0002.10
2024-05-18 02:44:00,SystemResetWarning,0822.4,4.99,000.00,023.7,022.1,000.0,032.0,025.1,019.1,0000.0,0007.06,0003.07,0002.07
2024-05-18 02:45:00,SystemResetWarning,0822.4,5.00,000.00,023.7,022.5,000.0,032.0,025.4,019.2,0000.0,0006.78,0002.99,0002.04
2024-05-18 02:46:00,SystemResetWarning,0822.4,5.01,000.00,023.8,022.8,000.0,032.0,025.5,019.1,0000.0,0006.53,0002.91,0002.01
2024-05-18 02:47:00,SystemResetWarning,0822.4,5.00,000.00,023.9,023.1,000.0,032.0,025.7,019.1,0000.0,0006.35,0002.91,0001.97
2024-05-18 02:48:00,SystemResetWarning,0822.5,5.00,000.00,024.0,023.3,000.0,032.0,025.9,019.0,0000.0,0006.26,0002.88,0001.97
2024-05-18 02:49:00,SystemResetWarning,0822.7,5.00,000.00,024.1,023.5,000.0,032.0,026.0,019.0,0000.0,0005.82,0002.83,0001.96
2024-05-18 02:50:00,SystemResetWarning,0822.7,5.00,000.00,024.2,023.7,000.0,032.0,026.1,018.9,0000.0,0005.73,0002.82,0001.95
2024-05-18 02:51:00,SystemResetWarning,0822.9,4.99,000.00,024.2,023.4,000.0,032.1,025.9,018.9,0000.0,0005.92,0002.83,0001.94
2024-05-18 02:52:00,SystemResetWarning,0822.6,5.00,000.00,023.9,021.7,000.0,032.2,025.0,019.2,0000.0,0005.60,0002.79,0001.93
2024-05-18 02:53:00,SystemResetWarning,0822.7,5.01,000.00,023.7,021.6,000.0,032.2,024.9,019.5,0000.0,0005.95,0002.82,0001.94
2024-05-18 02:54:00,SystemResetWarning,0822.7,4.99,000.00,023.7,022.0,000.0,032.1,025.0,019.6,0000.0,0007.41,0002.81,0001.93
2024-05-18 02:55:00,SystemResetWarning,0822.8,4.99,000.00,023.8,022.3,000.0,032.1,025.3,019.4,0000.0,0007.62,0002.87,0001.95
2024-05-18 02:56:00,SystemResetWarning,0822.9,5.00,000.00,023.8,022.6,000.0,032.0,025.5,019.4,0000.0,0008.41,0002.93,0001.97
2024-05-18 02:57:00,SystemResetWarning,0822.8,5.01,000.00,023.9,022.9,000.0,032.0,025.6,019.3,0000.0,0008.49,0002.93,0001.97
2024-05-18 02:58:00,SystemResetWarning,0822.5,5.01,000.00,024.0,023.1,000.0,032.0,025.8,019.3,0000.0,0008.32,0002.91,0001.98
2024-05-18 02:59:00,SystemResetWarning,0822.8,5.00,000.00,024.1,023.4,000.0,032.0,025.9,019.3,0000.0,0008.21,0002.88,0001.96
